#timestamp,LO_Frequency,Hit,StdDev 
1606856415.2,286046995.5,N
1606856435.0,286046999.5,N
1606856435.9,286046999.5,N
1606856455.8,286046998.4,N
1606856475.6,286047001.0,N
1606856495.4,286047002.8,N
1606856515.3,286047000.0,N
1606856535.1,286047004.2,N
1606856555.9,286047002.5,N
1606856575.7,286046999.8,N
1606856595.5,286047000.4,N
1606856615.4,286046998.8,N
1606856635.2,286047001.1,N
1606856655.0,286047001.1,N
1606856655.9,286047001.1,N
1606856675.8,286046998.4,N
1606856695.6,286047000.7,N
1606856715.5,286046996.5,N
1606856735.3,286046999.6,N
1606856755.1,286046997.3,N
1606856775.9,286046997.2,N
1606856795.7,286046996.5,N
1606856815.5,286046999.7,N
1606856835.4,286046999.8,N
1606856855.2,286047004.4,N
1606856875.1,286047001.7,N
1606856876.0,286047001.7,N
1606856895.8,286047003.2,N
1606856915.6,286047002.6,N
1606856935.5,286046998.5,N
1606856955.3,286046999.3,N
1606856975.2,286046999.7,N
1606856995.9,286047002.3,N
1606857015.7,286047002.2,N
1606857035.6,286046998.4,N
1606857055.4,286046998.9,N
1606857075.3,286046998.7,N
1606857095.1,286047000.2,N
1606857096.0,286047000.2,N
1606857115.8,286046998.8,N
1606857135.7,286046997.3,N
1606857155.5,286046994.9,N
1606857175.3,286046998.0,N
1606857195.2,286046997.0,N
1606857215.0,286046999.2,N
1606857215.9,286046999.2,N
1606857235.8,286046999.1,N
1606857255.6,286046997.5,N
1606857275.4,286046999.4,N
1606857295.3,286046995.4,N
1606857315.1,286046993.7,N
1606857335.9,286046995.5,N
1606857355.7,286046998.5,N
1606857375.5,286046998.1,N
1606857395.4,286046998.1,N
1606857415.2,286047000.9,N
1606857435.0,286046998.2,N
1606857435.9,286046998.2,N
1606857455.8,286046998.1,N
1606857475.6,286046999.3,N
1606857495.5,286046997.8,N
1606857515.3,286046997.2,N
1606857535.1,286046998.3,N
1606857555.9,286046999.6,N
1606857575.7,286046998.1,N
1606857595.6,286047001.2,N
1606857615.4,286046998.8,N
1606857635.2,286046998.7,N
1606857655.1,286047000.8,N
1606857656.0,286047000.8,N
1606857675.8,286047002.0,N
1606857695.6,286047004.2,N
1606857715.5,286047005.4,N
1606857735.3,286047006.0,N
1606857755.2,286047002.9,N
1606857775.9,286047005.9,N
1606857795.7,286047003.5,N
1606857815.6,286047005.0,N
1606857835.4,286047004.7,N
1606857855.2,286047005.2,N
1606857875.1,286047004.7,N
1606857876.0,286047004.7,N
1606857895.8,286047006.9,N
1606857915.7,286047006.2,N
1606857935.5,286047010.6,Y
1606857955.3,286047008.7,P
1606857975.2,286047006.8,N
1606857995.0,286047009.2,P
1606857995.9,286047009.2,Y
1606858015.7,286046996.5,P
1606858035.6,286047001.2,N
1606858055.4,286046999.5,N
1606858075.3,286047001.1,N
1606858095.1,286046997.2,N
1606858096.0,286046997.2,N
1606858115.8,286046995.7,N
1606858135.7,286046995.0,N
1606858155.5,286046995.1,N
1606858175.3,286046997.0,N
1606858195.2,286046999.3,N
1606858215.0,286046997.0,N
1606858215.9,286047011.9,Y
1606858235.8,286047000.5,P
1606858255.6,286047000.9,N
1606858275.4,286046999.9,N
1606858295.3,286047002.2,N
1606858315.1,286047002.7,N
1606858335.8,286047002.4,N
1606858355.7,286046999.8,N
1606858375.5,286047004.1,N
1606858395.4,286047004.1,N
1606858415.2,286047000.7,N
1606858435.0,286047000.8,N
1606858435.9,286047000.8,N
1606858455.8,286047002.2,N
1606858475.6,286047005.1,Y
1606858495.5,286047001.3,P
1606858515.3,286047007.3,P
1606858535.1,286047010.0,P
1606858555.9,286047008.1,N
1606858575.7,286047008.6,N
1606858595.5,286047006.8,N
1606858615.4,286047007.4,N
1606858635.2,286047005.1,N
1606858655.1,286047009.2,Y
1606858656.0,286047009.2,P
1606858675.8,286046999.3,N
1606858695.6,286046998.5,N
1606858715.5,286047001.7,N
1606858735.3,286047006.0,N
1606858755.1,286047005.7,N
1606858775.9,286047005.7,N
1606858795.7,286047005.0,N
1606858815.6,286047006.1,N
1606858835.4,286047012.2,Y
1606858855.2,286047008.7,P
1606858875.1,286047008.8,P
1606858876.0,286047008.8,P
1606858895.8,286047006.0,Y
1606858915.7,286046998.8,P
1606858935.5,286046997.1,N
1606858955.3,286046997.2,N
1606858975.2,286046994.6,N
1606858995.9,286046991.8,N
1606859015.7,286046993.3,N
1606859035.6,286046995.5,N
1606859055.4,286046997.7,N
1606859075.2,286046996.6,N
1606859095.1,286046995.9,N
1606859096.0,286046995.9,N
1606859115.8,286046997.9,N
1606859135.7,286046998.6,N
1606859155.5,286046998.9,N
1606859175.3,286046995.7,N
1606859195.2,286046993.3,N
1606859215.0,286046994.7,N
1606859215.9,286046994.7,N
1606859235.7,286046993.9,N
1606859255.6,286046998.8,N
1606859275.4,286046995.6,N
1606859295.3,286046993.8,N
1606859315.1,286046999.1,N
1606859316.0,286046999.1,N
1606859335.8,286046997.1,N
1606859355.7,286046998.7,N
1606859375.5,286046998.8,N
1606859395.3,286046999.4,N
1606859415.2,286046997.8,N
1606859435.0,286046996.6,N
1606859435.9,286046996.6,N
1606859455.8,286046994.9,N
1606859475.6,286046995.6,N
1606859495.4,286046995.3,N
1606859515.3,286046995.4,N
1606859535.1,286046998.4,N
1606859555.9,286046999.2,N
1606859575.7,286046998.6,N
1606859595.5,286046999.9,N
1606859615.4,286047005.6,N
1606859635.2,286047004.6,N
1606859655.0,286047002.5,N
1606859655.9,286047002.5,N
1606859675.8,286047003.2,N
1606859695.6,286047002.2,N
1606859715.5,286047000.9,N
1606859735.3,286047000.2,N
1606859755.1,286047003.8,N
1606859775.9,286047004.2,N
1606859795.7,286047005.4,N
1606859815.5,286047005.2,N
1606859835.4,286047005.7,N
1606859855.2,286047005.9,N
1606859875.1,286047007.4,N
1606859876.0,286047007.4,N
1606859895.8,286047009.9,N
1606859915.6,286047006.3,N
1606859935.5,286047006.7,N
1606859955.3,286047005.4,N
1606859975.1,286047004.7,N
1606859995.9,286047008.8,N
